Other Surface Observations
Issued by NWS

Home | Current Version | Previous Version | Text Only | Print | Product List | Glossary On
Versions: 1 2 3 4 5 6 7 8 9 10 11 12 13 14 15 16 17 18 19 20 21 22 23 24 25 26 27 28 29 30 31 32 33 34 35 36 37 38 39 40 41 42 43 44 45 46 47 48 49 50
038
SXUS52 KTAE 052218
OSOTAE
OSOTAE
North Florida/South Alabama/Southwest Georgia Weather Roundup
National Weather Service Tallahassee Florida
500 PM EST FRI FEB 05 2016

Note: "fair" indicates few or no clouds below 12,000 feet with no
significant weather and/or obstructions to visibility.

!FLZ017-115-028-034-025-052300
...North Florida...

CITY           SKY/WX    TMP DP  RH WIND       PRES   REMARKS
TALLAHASSEE    SUNNY     57  16  20 NE8       30.30S
APALACHICOLA   SUNNY     57  21  24 NE9       30.30S
PERRY          SUNNY     56  22  26 NE6       30.30R
CROSS CITY       N/A     59  24  26 N10       30.28R
JACKSONVILLE   SUNNY     53  36  52 NE13      30.29R
$$

!FLZ112-006-005-002-011-052300
...Florida Panhandle...

CITY           SKY/WX    TMP DP  RH WIND       PRES   REMARKS
MARIANNA       SUNNY     54  21  27 N6        30.33R
BONIFAY        FAIR      55  18  23 N8        30.34R
PANAMA CITY NW FAIR      55  19  24 N13       30.32R
TYNDALL AFB    SUNNY     57  21  24 N9        30.32R
TYND DRONE APT FAIR      56  22  26 MISG      30.31S
DE FUNIAK SPR  FAIR      53  17  24 N9        30.34R
EGLIN AFB      SUNNY     56  16  20 NE8       30.33R
DESTIN         SUNNY     58  21  24 N9        30.33S
HURLBURT       SUNNY     55  13  18 N12       30.33R
CRESTVIEW      SUNNY     55  16  21 N6        30.35S
PENSACOLA      SUNNY     56  18  22 N12       30.35S
$$

!ALZ063-066-052300
...South Alabama...

CITY           SKY/WX    TMP DP  RH WIND       PRES   REMARKS
DOTHAN         SUNNY     53  18  25 NE9       30.36R
OZARK CAIRNS   SUNNY     54  18  24 N12       30.33R
FT RUCKER HELI SUNNY     55  15  20 N9        30.33R
RUCKER HELI 3  FAIR      53  15  22 N8G17     30.34S
RUCKER HELI 2  FAIR      55  14  19 N9        30.33R
FLORALA APT    NOT AVBL
ANDALUSIA      SUNNY     57  18  21 N12       30.35R
TROY           SUNNY     53  17  24 N7        30.36R
EUFALA         FAIR      55  16  21 VRB3      30.33R
MOBILE         SUNNY     54  21  27 N12       30.38S
$$

!GAZ120>161-052300
...Southwest and South Central Georgia...

CITY           SKY/WX    TMP DP  RH WIND       PRES   REMARKS
THOMASVILLE    FAIR      52  25  35 NE9       30.32S
BAINBRIDGE     SUNNY     55  21  26 NE8       30.33R
MOODY AFB      SUNNY     53  24  32 N10       30.29S
VALDOSTA       SUNNY     53  25  33 NE9       30.30R
MOULTRIE       SUNNY     52  23  32 NE5       30.32R
BLAKELY        SUNNY     55  21  26 N7        30.33S
ALBANY         SUNNY     54  16  22 NE13      30.34S
TIFTON         FAIR      51  24  34 N5        30.31S
FITZGERALD     FAIR      54  17  23 N3        30.34R
CORDELE        FAIR      55  19  25 N7        30.34S
AMERICUS       FAIR      52  18  25 NE8       30.34R
HOMERVILLE     FAIR      55  32  41 NE6       30.31R
$$

!GMZ750-755-770-775-052300
...Coastal and Buoy Obs...

STATION/POSITION TIME  TEMP    WIND        PRES    VSBY  WAVE
                       AIR SEA DIR/SP/G                  HT/PER
                 (UTC) (F)     (DEG/KT/KT) (MB)    (MI)  (FT/S)
KEATON BEACH     2200   55      30/  9/ 12 1025.7R
CEDAR KEY        2200   57      30/  9/ 11 1025.1R
C TOWER          NOT AVBL
APALACHICOLA BUO 2150   56 70   20/ 17/ 21 1024.7S         6/ 7
PANAMA CITY BUOY 2150   55 71   30/ 16/ 19 1026.1F         6/ 6
MOBILE BUOY      NOT AVBL
ORANGE BCH AL BU 2150   54 62  360/  8/ 10 1027.7R         1/ 3
$$




USA.gov is the U.S. government's official web portal to all federal, state and local government web resources and services.